Location: Unspecified
(0.0000°N, 0.0000°E)
Time: 13:52:59
(UTC+00:00)

JUGNU - Pass Details

Date: 25 February 2020
Orbit: 836 x 864 km, 20.0° (Epoch: 01 April)

Event Time Altitude Azimuth Distance (km) Brightness Sun altitude
Exits shadow 04:15:52 27° 190° (S) 1,591 ? -28.9°
Maximum altitude 04:17:30 31° 161° (SSE) 1,462 ? -28.5°
Drops below altitude 10° 04:22:42 10° 101° (E) 2,480 ? -27.2°
Sets 04:25:33 0° 90° (E) 3,419 ? -26.5°
